Location: Huppendorf
(49.9333°N, 11.1500°E)
Time: 07:15:44
(UTC+00:00)

STARLINK-1027 - Pass Details

Date: 27 February 2020
Orbit: 569 x 570 km, 53.0° (Epoch: 31 March)

Event Time Altitude Azimuth Distance (km) Brightness Sun altitude
Rises 18:47:09 0° 269° (W) 2,770 8.8 -19.0°
Reaches altitude 10° 18:49:26 10° 274° (W) 1,874 7.6 -19.4°
Maximum altitude 18:53:38 58° 353° (N) 672 4.0 -20.1°
Enters shadow 18:54:47 42° 48° (NE) 824 4.2 -20.2°
